カタログに戻る

DMSP 5D-2 F13 DEB

運用中SSO
NORAD 40403·DEBRIS·🇺🇸 United States

打ち上げ Mar 24, 1995 から Vandenberg Space Force Base

Loading…

次のパス (今後24時間)

TLE

最新Source: Space-Track

元期: Sep 14, 2026, 13:01 UTC

1 40403U 95015Q   26257.54294359  .00001437  00000-0  55690-3 0  9997
2 40403  98.6642 284.7600 0013632 119.2422 241.0125 14.31511538599562

AllMySatでDMSP 5D-2 F13 DEBをリアルタイム追跡

Download on the App Store